User: anonymous
Location: Pleiades Observatory
(40.1297°N, 91.5238°W)
Time: 18:55:07
(UTC-05:00)
Language:

Cosmos 1842 Rocket - Orbit

View from above orbital plane
View from above orbital plane
View from above satellite
View from above satellite

Ground track
Ground track

The orbit data is extracted from the following two-line orbital elements,

1 17912U 87038B   14233.29586022  .00000160  00000-0  16986-4 0  4315
2 17912 082.5024 297.3293 0020727 029.0113 331.2249 14.82406501474967
Epoch (UTC): 21 August 2014 07:06:02
Eccentricity: 0.0020727
inclination: 82.5024°
perigee height: 607 km
apogee height: 636 km
right ascension of ascending node: 297.3293°
argument of perigee: 29.0113°
revolutions per day: 14.82406501
mean anomaly at epoch: 331.2249°
orbit number at epoch: 47496

The dashed part of the orbit path shows where the satellite is in the earth's shadow,  

DLR